Regional Weather Roundup
Issued by NWS

Home | Current Version | Previous Version | Graphics & Text | Print | Product List | Glossary On
Versions: 1 2 3 4 5 6 7 8 9 10 11 12 13 14 15 16 17 18 19 20 21 22 23 24 25 26 27 28 29 30 31 32 33 34 35 36 37 38 39 40 41 42 43 44 45 46 47 48 49 50
000
ASUS45 KSLC 090810
RWRUT

UTAH REGIONAL WEATHER ROUNDUP
NATIONAL WEATHER SERVICE SALT LAKE CITY UT
100 AM MST TUE FEB 09 2016

UTZ001>011-023>025-090900-

NORTHERN UTAH

CITY           SKY/WX    TMP DP  RH WIND       PRES   REMARKS
BRIGHAM CITY     N/A     14  11  86 CALM      30.64F VSB 1/4
HILL AFB       PTCLDY    26  17  66 E10       30.60F WCI  16
LOGAN          FOG        8   6  92 CALM      30.65S VSB<1/4
OGDEN          PTCLDY    25  20  81 S3        30.61F
PROVO AIRPORT    N/A     12  10  92 N3        30.63F VSB 3/4
SALT LAKE CITY PTCLDY    28  25  88 SW3       30.62F FOG
VERNAL         CLOUDY    13   8  81 SW5       30.55F WCI   5
WENDOVER       PTCLDY    27  21  80 CALM      30.61F
HEBER CITY     PTCLDY    10   7  85 CALM      30.59S
WEST JORDAN    CLEAR     25  23  93 CALM      30.63S

$$

UTZ012>022-026-027-090900-

SOUTHERN/CENTRAL UTAH

CITY           SKY/WX    TMP DP  RH WIND       PRES   REMARKS
BLANDING       CLEAR     31  19  59 CALM      30.52F
BRYCE CANYON   PTCLDY    22  16  78 NW13      30.55F WCI  10
CEDAR CITY     PTCLDY    14  12  92 NW3       30.55S
DELTA          MOCLDY    10   9  92 S5        30.62S VSB<1/4 WCI   2
HANKSVILLE     MOCLDY    21  21 100 CALM      30.55S
MILFORD        MOCLDY    12   8  84 N7        30.60S FOG     WCI   1
MOAB/CYNLANDS  MOCLDY    20  17  88 CALM      30.52S
PRICE          CLEAR     22  15  75 VRB5      30.48F WCI  16
ST GEORGE      MOSUNNY   41  25  52 CALM      30.47F
KANAB          CLEAR     32  28  86 E8        30.49F WCI  25

$$

REGIONAL REPORTS     COLORADO/ARIZONA

CITY           SKY/WX    TMP DP  RH WIND       PRES   REMARKS
CRAIG, CO      CLOUDY    -4  -7  87 CALM      30.54S
GRAND JUNCTION CLOUDY    19  19 100 E5        30.52F WCI  12
RIFLE          CLOUDY    17  11  77 E3        30.55R
MONTROSE       CLOUDY    19  14  81 SE7       30.54S WCI  10
CORTEZ         CLOUDY    27  19  72 N5        30.44S WCI  22
PAGE, AZ       CLEAR     35  25  66 CALM      30.47S
GRAND CANYON   CLEAR     25  20  81 SW3       30.47F
KINGMAN        CLEAR     48  24  39 E9        30.36S
FLAGSTAFF      CLEAR     35  19  52 NE8       30.46S WCI  29

$$

REGIONAL REPORTS    NEVADA/IDAHO/WYOMING

CITY           SKY/WX    TMP DP  RH WIND       PRES   REMARKS
LAS VEGAS, NV  CLEAR     56  28  34 S3        30.33S
ELY            PTCLDY     9   5  84 S15       30.60F WCI  -8
ELKO           MOCLDY    15  11  83 E3        30.60F
POCATELLO, ID  FOG       26  26 100 NE3       30.63F VSB 1/2
BURLEY         CLOUDY    29  28  96 NE10      30.60S FOG     WCI  20
EVANSTON, WY   CLOUDY    25  16  68 S7        30.56F WCI  17
ROCK SPRINGS   CLOUDY    28  21  75 SW20      30.46F WCI  15

$$



USA.gov is the U.S. government's official web portal to all federal, state and local government web resources and services.